DELTA 1 DEB, 21914

Orbit data source: Space-Track

DELTA 1 DEB, 21914 is space debris in SSO originally from a launch on Thu, 12 Jun 1975 UTC launched from the Air Force Western Test Range (AFWTR). Debris objects in space refer to the collection of defunct objects orbiting the Earth. Examples of debris include non-operational satellites, rocket bodies, and fragments generated from explosions, collisions, or faulty payload assembly.

Loading next visibility...
Identifier
21914, 1975-052JS
Orbit
SSO
Country
Flag of USUS
Related business
Manufacturer
Unknown
Mission
Spacecraft
Bus & Motor
Unknown
Mass
Unknown
Launch date (UTC)
1975-06-12 (51 years ago)
Launch vehicle
Unknown
Launch site
Air Force Western Test Range (AFWTR)
Object type
Payload
Rocket body
Debris
Shape & HBR
Unknown shape, 0.1 m
Radar Cross Section
Small (<0.1 m²)

Expand to show TLE details & history
Last TLE update: 1 day ago

TLE from 1 day ago
0 DELTA 1 DEB
1 21914U 75052JS  25353.15858348 -.00000029  00000-0 -24867-4 0  9990
2 21914  99.4694  50.8864 0632163  82.8577 308.8904 12.13831994504584
Epoch: 2025-12-19T03:48Z
TLE epoch observation values (Epoch: 2025-12-19T03:48:21.612Z)
Latitude
25.48009°
Longitude
-98.74343°
Altitude
1,325.42 km
Speed
7.329 km/s
True Right ascension
03h 05m 24s
True Declination
25° 21' 24"
Sunlit
Object was in full shadow at epoch
Visualization orbit readout
Latitude
Unknown
Longitude
Unknown
Altitude
Unknown
Speed
Unknown
Apparent Right ascension
Unknown
Apparent Declination
Unknown
Sunlit
N/A
Visualization observer readout
Local Sidereal Time
10:55:32
Azimuth
Unknown
Elevation
Unknown
Doppler factor
Unknown
Orbital elements
Apogee altitude
2,122.402 km
Perigee altitude
1,111.559 km
Semi-major axis
7,995.118 km
Eccentricity
0.06322
Inclination
99.4694°
RAAN
50.8864°
Arg. of periapsis
82.8577°
True anomaly
302.96895°
Mean anomaly
308.8904°
Eccentric anomaly
305.95858°
Mean motion
3.03603 °/min
Orbital period
118.58 mins
BSTAR
-0.000024867
Loading maneuver chart data...
Computing Atmospheric mass density...
Loading historical data...
Loading historical data...
Loading historical data...
Loading historical data...
Loading historical data...
Loading historical data...
Loading historical data...

Documentation

Showing up to 5 results
|